JILIN-01 GAOFEN 3H (46460 NORAD) Tracking and Keplerian Element Data

This shows tracking and keplerian element data for the satellite.

Feedback or suggestion? Click here.




ElementValue
Catalog46460
NameJILIN-01 GAOFEN 3H
Epoch Orbit691
Epoch Day304.85913896
Epoch Year2020
RAAN359.7001
Inclination97.5273
Eccentricity0.0015906
Argument of Perigee130.9487
Mean Anonmoly339.9106
Mean Motion15.09538931
Decay Rate4.66E-06
L11 46460U 20065G 20304.85913896 .00000466 00000-0 32910-4 0 9996
L22 46460 97.5273 359.7001 0015906 130.9487 339.9106 15.09538931 6914

Live tracking and technical data element details for JILIN-01 GAOFEN 3H (NORAD 46460). JILIN-01 GAOFEN 3H can be tracked NOW for your location showing map with azimuth and elevation plus other details from your city location.

Track the satellite on the map from your city or location and see movement details for azimuth, elevation, latitude, longitude, range, height, and movement on the map or in text.







IsCatalogInMostPopularTable: catalog: 46460, numindb: 10
Update: records affected: 1



GetName: 46460 JILIN-01 GAOFEN 3H

Hit Count: updated at: Sat, 31 Oct 2020 20:27:44 GMT